Kamez, Albania

5:14 PM CEST on April 19, 2018 (GMT +0200)
Kamez

Weather History for 13615 - April, 2013

Change the Weather History Date:

Monday, April 22, 2013

  Actual Average Record
Temperature  
Mean Temperature 57 °F -  
Max Temperature 68 °F 70 °F - ()
Min Temperature 46 °F 54 °F - ()
Degree Days  
Heating Degree Days 8    
Growing Degree Days 7 (Base 50)    
Moisture  
Dew Point 50 °F    
Average Humidity 81    
Maximum Humidity 94    
Minimum Humidity 49    
Precipitation  
Precipitation 0.00 in -13.12 in - ()
Sea Level Pressure  
Sea Level Pressure 30.02 in    
Wind  
Wind Speed 3 mph ()    
Max Wind Speed 8 mph    
Max Gust Speed -    
Visibility 6.1 miles    
Events Rain    
T = Trace of Precipitation, MM = Missing Value Source: Averaged Metar Reports

Daily Weather History Graph

Daily Weather History Graph

Search for Another Location

Airport or City:

Astronomy

Apr. 22, 2013 Rise Set
Actual Time 5:50 AM CEST 7:28 PM CEST
Civil Twilight 5:21 AM CEST 7:57 PM CEST
Nautical Twilight 4:46 AM CEST 8:33 PM CEST
Astronomical Twilight 4:08 AM CEST 9:11 PM CEST
Moon 3:55 PM CEST (4/22) 3:37 AM CEST (4/22)
Length of Visible Light 14h 36m
Length of Day
13h 37m
Waxing Gibbous, 86% of the Moon is Illuminated
Apr 22
Waxing Gibbous
Apr 25
Full
May 2
Last Quarter
May 10
New
May 18
First Quarter

Hourly Weather History & Observations

Time (CEST) Temp. Windchill Dew Point Humidity Pressure Visibility Wind Dir Wind Speed Gust Speed Precip Events Conditions
12:20 AM 50.0 °F - 44.6 °F 82% 30.01 in - Variable 2.3 mph - N/A   Clear
12:50 AM 51.8 °F - 46.4 °F 82% 30.01 in 6.2 mi Calm Calm - N/A   Partly Cloudy
1:20 AM 50.0 °F - 44.6 °F 82% 30.01 in 6.2 mi South 4.6 mph - N/A   Scattered Clouds
1:50 AM 50.0 °F - 44.6 °F 82% 29.98 in 6.2 mi Variable 2.3 mph - N/A   Scattered Clouds
2:20 AM 50.0 °F - 46.4 °F 87% 29.98 in 6.2 mi South 3.5 mph - N/A   Scattered Clouds
2:50 AM 50.0 °F - 44.6 °F 82% 29.98 in 6.2 mi SE 2.3 mph - N/A   Partly Cloudy
3:20 AM 48.2 °F - 46.4 °F 93% 29.98 in 6.2 mi Variable 2.3 mph - N/A   Partly Cloudy
3:50 AM 46.4 °F 44.3 °F 44.6 °F 93% 29.98 in 6.2 mi South 4.6 mph - N/A   Partly Cloudy
4:20 AM 48.2 °F - 44.6 °F 87% 29.98 in 6.2 mi Variable 1.2 mph - N/A   Partly Cloudy
4:50 AM 46.4 °F - 44.6 °F 93% 29.95 in 6.2 mi Calm Calm - N/A   Unknown
5:00 AM 49 °F - 44 °F 76% 29.98 in 11 mi SSW 4.5 mph - -   Scattered Clouds
5:20 AM 48.2 °F - 42.8 °F 82% 29.98 in 6.2 mi South 2.3 mph - N/A   Scattered Clouds
5:50 AM 48.2 °F - 44.6 °F 87% 29.98 in 6.2 mi SE 4.6 mph - N/A   Scattered Clouds
6:20 AM 48.2 °F - 46.4 °F 93% 29.98 in 6.2 mi Calm Calm - N/A   Mostly Cloudy
6:50 AM 50.0 °F - 46.4 °F 87% 29.98 in 6.2 mi Variable 2.3 mph - N/A   Mostly Cloudy
7:20 AM 53.6 °F - 46.4 °F 77% 30.01 in 6.2 mi SW 5.8 mph - N/A   Partly Cloudy
7:50 AM 57.2 °F - 48.2 °F 72% 30.01 in 6.2 mi ESE 3.5 mph - N/A   Scattered Clouds
8:20 AM 57.2 °F - 48.2 °F 72% 30.01 in 6.2 mi East 3.5 mph - N/A Rain Light Rain
8:50 AM 55.4 °F - 51.8 °F 88% 30.04 in 3.7 mi SSW 3.5 mph - N/A Rain Rain
9:20 AM 55.4 °F - 51.8 °F 88% 30.04 in 3.1 mi South 5.8 mph - N/A Rain Rain
9:50 AM 55.4 °F - 53.6 °F 94% 30.04 in 3.1 mi South 4.6 mph - N/A Rain Light Rain
10:20 AM 57.2 °F - 51.8 °F 82% 30.04 in 6.2 mi South 4.6 mph - N/A   Overcast
10:50 AM 57.2 °F - 53.6 °F 88% 30.04 in 6.2 mi South 4.6 mph - N/A   Mostly Cloudy
11:00 AM 59 °F - 54 °F 77% 30.04 in 6 mi SSE 4.5 mph - -   Overcast
11:20 AM 60.8 °F - 53.6 °F 77% 30.04 in 6.2 mi SSE 4.6 mph - N/A   Mostly Cloudy
11:50 AM 62.6 °F - 50.0 °F 63% 30.04 in 6.2 mi SSE 5.8 mph - N/A   Mostly Cloudy
12:20 PM 64.4 °F - 50.0 °F 59% 30.01 in 6.2 mi South 5.8 mph - N/A   Mostly Cloudy
12:50 PM 66.2 °F - 51.8 °F 60% 30.01 in 6.2 mi Variable 2.3 mph - N/A   Mostly Cloudy
1:20 PM 66.2 °F - 50.0 °F 56% 30.01 in 6.2 mi Calm Calm - N/A   Mostly Cloudy
1:50 PM 68.0 °F - 48.2 °F 49% 30.01 in 6.2 mi Calm Calm - N/A   Overcast
2:20 PM 68.0 °F - 50.0 °F 52% 29.98 in 6.2 mi Calm Calm - N/A   Overcast
2:50 PM 66.2 °F - 55.4 °F 68% 29.98 in 6.2 mi NW 2.3 mph - N/A   Overcast
3:20 PM 64.4 °F - 51.8 °F 64% 30.01 in 6.2 mi West 5.8 mph - N/A Rain Light Rain
3:50 PM 62.6 °F - 51.8 °F 68% 30.01 in 6.2 mi West 8.1 mph - N/A   Mostly Cloudy
4:20 PM 60.8 °F - 50.0 °F 68% 30.04 in 6.2 mi WNW 4.6 mph - N/A Rain Light Rain
4:50 PM 57.2 °F - 53.6 °F 88% 30.04 in 4.3 mi East 4.6 mph - N/A Rain Light Rain
5:00 PM 58 °F - 53 °F 78% 30.06 in 9 mi East 2.2 mph - -   Partly Cloudy
5:20 PM 59.0 °F - 53.6 °F 82% 30.04 in 3.7 mi ESE 5.8 mph - N/A Rain Rain
5:50 PM 57.2 °F - 53.6 °F 88% 30.04 in 3.7 mi East 5.8 mph - N/A Rain Rain
6:20 PM 57.2 °F - 53.6 °F 88% 30.04 in 6.2 mi SE 6.9 mph - N/A Rain Light Rain
6:50 PM 57.2 °F - 53.6 °F 88% 30.04 in 6.2 mi SE 8.1 mph - N/A Rain Light Rain
7:20 PM 57.2 °F - 53.6 °F 88% 30.04 in 6.2 mi SSW 6.9 mph - N/A Rain Light Rain
7:50 PM 57.2 °F - 53.6 °F 88% 30.04 in 6.2 mi SE 5.8 mph - N/A   Overcast
8:20 PM 57.2 °F - 53.6 °F 88% 30.06 in 5.6 mi SSE 8.1 mph - N/A   Mostly Cloudy
8:50 PM 55.4 °F - 53.6 °F 94% 30.06 in 6.2 mi South 5.8 mph - N/A   Mostly Cloudy
9:20 PM 57.2 °F - 53.6 °F 88% 30.06 in 6.2 mi SSE 4.6 mph - N/A   Mostly Cloudy
9:50 PM 57.2 °F - 53.6 °F 88% 30.06 in 6.2 mi SSE 4.6 mph - N/A   Overcast
10:20 PM 57.2 °F - 53.6 °F 88% 30.06 in 6.2 mi South 4.6 mph - N/A   Overcast
10:50 PM 57.2 °F - 53.6 °F 88% 30.09 in 6.2 mi SE 2.3 mph - N/A   Overcast
11:00 PM 57 °F - 53 °F 83% 30.10 in 9 mi South 2.2 mph - -   Overcast
11:20 PM 57.2 °F - 53.6 °F 88% 30.09 in 6.2 mi ESE 3.5 mph - N/A Rain Light Rain
11:50 PM 57.2 °F - 53.6 °F 88% 30.09 in 6.2 mi SE 3.5 mph - N/A Rain Light Rain